DateTimeUTC,F1_A11,F1_S11,BsB_S11,BsG_S11,BsR_S11,BbsB_S11,BbsG_S11,BbsR_S11,BaB_A11,BaG_A11,BaR_A11,Tu_S11,T_S11,Uu_S11,U_S11,P_S11,T1_A11
2021-06-05T21:00:00Z,00000200,20000000,,,,,,,0000.24,-000.01,-000.01,19.1,25.8,09.1,06.1,0675.4,31.1
2021-06-05T21:01:00Z,00000200,20000000,,,,,,,-000.21,0000.06,0000.13,19.1,25.8,08.9,05.9,0675.4,31.1
2021-06-05T21:02:00Z,00000200,20000000,,,,,,,-000.21,0000.25,-000.16,19.1,25.8,08.9,05.9,0675.4,31.1
2021-06-05T21:03:00Z,00000200,60000000,,,,,,,0000.73,0000.42,0000.67,19.1,25.8,08.9,05.9,0675.4,31.1
2021-06-05T21:04:00Z,00000200,40000000,0000.68,0000.41,0000.02,0000.13,0000.10,0000.01,0000.26,-000.02,0000.06,19.2,25.6,08.8,06.0,0676.3,31.1
2021-06-05T21:05:00Z,00000200,00000000,0000.86,0000.17,0000.31,0000.69,0000.40,0000.23,0000.35,0000.28,0000.16,19.3,25.5,08.9,06.1,0676.4,31.1
2021-06-05T21:06:00Z,00000200,00000000,0001.11,0000.49,0000.24,-000.23,0000.28,0000.12,0000.38,0000.33,0000.45,19.3,25.5,09.0,06.2,0676.4,31.1
2021-06-05T21:07:00Z,00000200,00000000,0000.71,0000.30,0000.12,0000.06,0000.35,0000.10,0000.39,0000.40,0000.13,19.3,25.5,08.9,06.1,0676.4,31.1
2021-06-05T21:08:00Z,00000200,00000000,0000.79,0000.48,-000.10,0000.23,0000.13,-000.04,0000.17,0000.08,0000.00,19.3,25.5,08.9,06.0,0676.4,31.1
2021-06-05T21:09:00Z,00000200,00000000,0000.64,0000.41,0000.26,0000.34,0000.04,0000.16,0000.46,0000.73,0000.40,19.3,25.5,08.8,06.0,0676.4,31.1
2021-06-05T21:10:00Z,00000200,00000000,0000.37,0000.36,0000.13,0000.33,0000.20,0000.04,0000.43,0000.25,0000.30,19.3,25.5,08.9,06.1,0676.5,31.1
2021-06-05T21:11:00Z,00000200,00000000,0000.53,0000.33,0000.16,0000.13,0000.26,0000.06,0000.43,0000.24,-000.00,19.3,25.5,08.9,06.1,0676.4,31.1
2021-06-05T21:12:00Z,00000200,00000000,0000.48,0000.40,-000.07,0000.15,0000.05,-000.35,0000.43,0000.43,0000.44,19.3,25.5,08.9,06.1,0676.4,31.1
2021-06-05T21:13:00Z,00000200,00000000,-000.24,0000.52,0000.51,0000.33,0000.29,0000.15,0000.37,0000.39,0000.48,19.3,25.5,09.0,06.1,0676.4,31.1
2021-06-05T21:14:00Z,00000200,00000000,0000.17,0000.35,0000.15,0000.21,0000.28,0000.15,0000.71,0000.50,0000.53,19.3,25.5,09.0,06.2,0676.4,31.1
2021-06-05T21:15:00Z,00000200,00000000,0000.91,0000.18,0000.49,-000.10,0000.18,0000.01,0000.58,0000.46,0000.21,19.3,25.5,09.1,06.3,0676.4,31.1
2021-06-05T21:16:00Z,00000200,00000000,0000.56,0000.62,0000.14,0000.26,0000.14,0000.05,-000.24,0000.06,0000.17,19.3,25.5,09.0,06.2,0676.4,31.1
2021-06-05T21:17:00Z,00000200,00000000,0000.43,0000.29,0000.17,0000.13,0000.15,0000.03,0000.77,0000.65,0000.21,19.3,25.5,09.1,06.2,0676.4,31.1
2021-06-05T21:18:00Z,00000200,00000000,0000.74,0000.33,0000.24,0000.09,0000.27,-000.01,0000.61,0000.62,0000.35,19.3,25.5,09.3,06.3,0676.4,31.1
2021-06-05T21:19:00Z,00000200,00000000,0000.29,0000.43,0000.14,0000.34,0000.31,0000.04,0000.39,0000.09,0000.38,19.3,25.5,09.3,06.4,0676.4,31.1
2021-06-05T21:20:00Z,00000200,00000000,0000.28,0000.34,0000.23,0000.08,0000.32,0000.02,0000.10,0000.42,-000.03,19.3,25.5,09.1,06.3,0676.4,31.1
2021-06-05T21:21:00Z,00000200,00000000,0000.47,0000.57,0000.16,0000.09,0000.22,0000.22,0000.73,0000.63,0000.68,19.3,25.5,09.2,06.3,0676.4,31.1
2021-06-05T21:22:00Z,00000200,00000000,0000.71,0000.47,0000.32,0000.66,0000.06,-000.07,0000.91,0000.74,0000.80,19.3,25.5,09.5,06.5,0676.4,31.1
2021-06-05T21:23:00Z,00000200,00000000,0000.99,0000.28,0000.34,-000.06,0000.16,0000.15,0000.46,0000.63,0000.15,19.3,25.5,09.7,06.7,0676.4,31.1
2021-06-05T21:24:00Z,00000200,00000000,0001.02,0000.71,0000.34,0000.36,0000.44,0000.13,0000.67,0000.34,-000.03,19.3,25.5,09.7,06.6,0676.4,31.1
2021-06-05T21:25:00Z,00000200,00000000,0000.38,0000.42,0000.40,-000.10,0000.23,0000.27,0000.77,0000.61,0000.85,19.3,25.5,09.8,06.8,0676.4,31.1
2021-06-05T21:26:00Z,00000200,00000000,0001.05,0000.20,0000.50,-000.09,0000.39,0000.22,0000.26,0000.56,0000.27,19.3,25.5,09.9,06.8,0676.4,31.1
2021-06-05T21:27:00Z,00000200,00000000,0000.24,0000.21,0000.02,0000.39,0000.36,-000.05,0000.59,-000.04,0000.37,19.3,25.5,09.9,06.8,0676.4,31.1
2021-06-05T21:28:00Z,00000200,00000000,-000.42,0000.52,0000.31,0000.87,0000.14,-000.06,0000.70,0000.98,0000.40,19.3,25.5,09.9,06.8,0676.4,31.1
2021-06-05T21:29:00Z,00000200,00000000,0000.47,0000.21,0000.32,0000.63,0000.25,-000.20,0000.31,0000.25,0000.27,19.3,25.5,09.9,06.8,0676.4,31.1
2021-06-05T21:30:00Z,00000200,00000000,0000.24,0000.55,-000.15,0000.20,0000.46,0000.04,0000.41,0000.51,0000.24,19.3,25.5,09.8,06.8,0676.4,31.1
2021-06-05T21:31:00Z,00000200,00000000,0000.91,0000.71,0000.15,0000.31,0000.23,0000.28,0000.96,0000.68,0000.06,19.3,25.5,10.0,06.8,0676.4,31.1
2021-06-05T21:32:00Z,00000200,00000000,0000.97,0000.39,0000.02,0000.36,0000.37,0000.21,0000.20,0000.21,0000.83,19.3,25.4,09.9,06.8,0676.4,31.1
2021-06-05T21:33:00Z,00000200,00000000,0000.59,0000.30,0000.31,0000.09,0000.23,0000.09,0000.49,0000.39,0000.56,19.3,25.5,10.0,06.9,0676.4,31.1
2021-06-05T21:34:00Z,00000200,00000000,0000.20,0000.73,0000.21,0000.50,0000.38,0000.21,0000.57,0000.93,0000.07,19.3,25.5,10.1,06.9,0676.4,31.1
2021-06-05T21:35:00Z,00000200,00000000,0000.31,0000.45,0000.02,-000.46,0000.42,0000.09,0000.74,0000.34,0000.40,19.3,25.4,10.2,07.0,0676.4,31.1
2021-06-05T21:36:00Z,00000200,00000000,0000.50,0000.48,0000.19,0000.52,0000.17,0000.07,0000.75,0000.29,0000.43,19.3,25.4,10.0,06.9,0676.4,31.1
2021-06-05T21:37:00Z,00000200,00000000,0000.05,0000.47,0000.36,0000.54,0000.49,0000.25,0000.07,0000.35,0000.25,19.3,25.4,10.0,06.9,0676.4,31.1
2021-06-05T21:38:00Z,00000200,00000000,0000.77,0000.43,0000.15,0000.72,0000.17,0000.39,0000.41,0000.30,0000.33,19.3,25.4,10.0,06.9,0676.3,31.1
2021-06-05T21:39:00Z,00000200,00000000,-000.06,0000.25,0000.40,0000.41,0000.28,0000.09,0000.87,0000.86,0000.22,19.3,25.4,10.0,06.8,0676.3,31.1
2021-06-05T21:40:00Z,00000200,00000000,0000.29,0000.41,0000.17,0000.61,0000.13,-000.35,0000.05,-000.04,0000.46,19.3,25.4,10.1,06.9,0676.3,31.1
2021-06-05T21:41:00Z,00000200,00000000,0000.64,0000.33,0000.26,0000.23,0000.19,0000.15,0000.76,0001.01,0000.53,19.3,25.4,10.1,06.9,0676.3,31.1
2021-06-05T21:42:00Z,00000200,00000000,0000.94,0000.37,0000.21,0000.63,0000.07,-000.02,0000.47,0000.35,0000.61,19.3,25.4,10.1,06.9,0676.3,31.1
2021-06-05T21:43:00Z,00000200,00000000,0000.83,0000.78,0000.10,0001.01,0000.35,0000.05,0000.74,0000.47,-000.11,19.3,25.4,10.1,06.9,0676.3,31.1
2021-06-05T21:44:00Z,00000200,00000000,0000.70,0000.24,0000.36,0000.35,0000.23,0000.15,0000.35,0000.60,0000.40,19.3,25.4,10.1,06.9,0676.4,31.1
2021-06-05T21:45:00Z,00000200,00000000,0000.54,0000.50,0000.20,0000.52,0000.31,-000.05,0000.31,0000.46,0000.24,19.3,25.4,10.0,06.9,0676.3,31.1
2021-06-05T21:46:00Z,00000200,00000000,0001.16,0000.73,0000.16,-000.13,0000.18,-000.26,0000.95,0000.83,0000.74,19.3,25.4,10.0,06.9,0676.4,31.1
2021-06-05T21:47:00Z,00000200,00000000,0000.17,0000.42,0000.18,-000.02,0000.32,0000.28,0000.21,-000.09,0000.29,19.2,25.4,10.1,06.9,0676.3,31.1
2021-06-05T21:48:00Z,00000200,00000000,0001.32,0000.38,0000.27,0000.26,0000.46,0000.09,0000.75,0000.62,0000.15,19.2,25.4,10.1,06.9,0676.3,31.1
2021-06-05T21:49:00Z,00000200,00000000,0000.91,0000.39,0000.23,0000.22,0000.19,-000.14,0000.75,0000.27,0000.33,19.3,25.4,10.1,06.9,0676.3,31.1
2021-06-05T21:50:00Z,00000200,00000000,0000.21,0000.01,0000.40,0000.51,0000.01,0000.30,0000.30,0000.32,0000.20,19.3,25.4,10.0,06.9,0676.3,31.1
2021-06-05T21:51:00Z,00000200,00000000,0000.24,0000.11,0000.46,-000.20,0000.17,0000.24,0000.27,0000.46,0000.44,19.3,25.4,10.0,06.9,0676.3,31.1
2021-06-05T21:52:00Z,00000200,00000000,0000.37,0000.40,0000.09,0000.16,0000.37,0000.28,0000.50,0000.06,0000.08,19.3,25.4,10.0,06.9,0676.3,31.1
2021-06-05T21:53:00Z,00000200,00000000,0000.92,0000.57,0000.66,0000.50,0000.26,0000.13,0000.39,0000.81,0000.39,19.3,25.4,10.0,06.8,0676.3,31.1
2021-06-05T21:54:00Z,00000200,00000000,0000.15,0000.51,0000.43,0000.20,0000.31,0000.34,0000.74,0000.21,0000.42,19.3,25.4,09.9,06.8,0676.3,31.1
2021-06-05T21:55:00Z,00000200,00000000,0000.22,0000.53,0000.38,0000.31,0000.08,0000.24,0000.11,0000.39,0000.37,19.2,25.4,09.9,06.8,0676.3,31.1
2021-06-05T21:56:00Z,00000200,00000000,0000.42,0000.28,0000.41,-000.03,0000.41,0000.07,0000.15,0000.54,-000.02,19.3,25.4,09.8,06.8,0676.4,31.1
2021-06-05T21:57:00Z,00000200,40000000,,,,,,,0000.47,0000.21,0000.13,19.3,25.5,09.5,06.5,0676.5,31.1
2021-06-05T21:58:00Z,00000200,60000000,,,,,,,-000.03,-000.08,0000.01,19.0,25.5,09.9,06.7,0675.4,31.1
2021-06-05T21:59:00Z,00000200,20000000,,,,,,,-000.12,-000.04,0000.21,19.0,25.6,09.8,06.5,0675.4,31.1
